Wind_Speed
17 19 21 22 23 24 25 26 28 30 35 36 37 37 39 42 41 40 40 41 41 40 40 39 37 36 36 35 35 34 34 34 33 32 31 32 32 31 29 28 27 27 27 26
17 19 19 21 23 24 26 29 31 34 37 38 38 38 39 41 42 42 42 43 43 41 41 41 39 38 38 37 37 36 36 36 36 35 34 34 35 34 32 31 30 30 29 29
17 18 19 21 23 25 26 30 32 33 35 36 37 37 38 39 42 43 42 42 42 40 40 40 39 39 38 38 37 37 37 37 37 37 36 36 35 35 35 34 33 33 32 31
15 18 20 23 25 26 27 29 31 31 33 33 33 33 34 35 40 40 39 39 39 39 38 37 37 36 36 36 37 37 37 37 37 37 37 36 36 36 35 35 36 36 36 35
17 19 20 21 23 25 26 28 30 32 32 31 28 28 31 34 38 39 37 36 36 36 36 35 35 34 34 35 35 36 37 37 37 37 37 37 37 36 36 37 37 37 38 37
16 16 18 21 23 25 27 29 30 30 28 26 25 25 30 33 36 37 37 35 35 34 33 33 33 33 33 33 34 35 36 37 37 37 38 38 37 36 37 38 38 39 38 39
15 16 19 22 24 25 27 28 27 23 19 19 21 23 28 31 33 35 35 35 34 33 32 32 33 33 33 33 34 35 36 36 37 37 38 37 37 36 37 38 39 39 40 40
17 21 22 22 23 25 25 24 22 18 14 13 16 20 23 26 27 29 30 30 28 29 30 31 32 32 32 32 33 34 34 35 35 35 35 35 35 35 36 37 36 37 38 37
17 20 21 22 23 24 23 21 19 15 11 11 12 14 17 19 21 23 24 25 25 24 26 27 28 28 29 29 29 30 30 30 30 31 32 32 32 32 32 32 32 33 32 32
18 20 21 22 23 24 23 21 17 13 10 8 11 13 14 15 17 17 17 18 19 20 20 22 24 24 25 25 24 25 25 25 26 26 27 27 27 27 26 26 27 27 29 29
19 20 21 22 23 23 23 21 17 13 11 9 9 10 11 11 11 11 11 12 12 13 15 17 18 19 20 20 19 19 19 19 19 19 20 20 20 21 22 23 23 23 23 21
19 20 20 21 21 22 22 21 18 15 13 12 12 13 13 12 11 10 8 8 8 9 11 11 11 11 12 11 11 12 12 11 11 11 11 12 14 15 15 15 16 15 15 16
20 21 21 22 22 22 21 20 18 17 15 14 12 15 15 14 14 13 9 9 8 7 6 4 4 4 3 3 3 4 5 5 5 5 5 7 7 8 8 7 7 8 9 10
20 21 21 21 21 20 20 20 19 18 17 17 15 15 15 15 15 15 14 13 14 12 12 11 11 9 9 7 5 4 3 3 2 2 1 1 1 1 2 3 5 5 6 6
21 21 20 19 19 19 19 19 19 18 18 18 18 17 18 17 17 17 18 18 18 17 17 17 15 13 12 11 10 9 8 7 7 6 5 4 3 3 3 4 5 6 7 8
21 22 20 18 18 19 19 19 19 18 17 17 17 17 17 18 18 19 20 20 20 20 19 18 17 16 14 13 12 11 10 8 7 7 6 6 6 6 7 7 8 9 10 11
21 22 22 20 18 18 19 19 18 17 17 16 16 16 16 17 18 19 20 20 20 20 20 20 18 18 16 16 14 13 12 10 9 9 8 8 8 8 9 10 11 11 12 13
20 22 22 21 19 19 18 17 16 16 15 15 15 15 15 16 17 17 19 19 20 19 19 19 18 17 17 16 15 14 13 12 11 11 10 10 10 10 10 11 11 12 13 13
20 21 22 22 20 19 17 16 15 15 14 14 14 14 14 15 15 17 18 19 19 19 19 18 18 17 17 17 16 15 14 14 14 13 12 12 11 11 11 11 11 12 12 13
19 20 21 22 21 19 18 16 15 14 14 14 14 14 14 14 15 17 17 18 18 18 18 18 18 18 17 17 17 16 16 15 15 15 14 14 14 13 13 12 12 12 12 13
17 19 20 22 21 19 17 17 15 14 14 13 13 13 13 13 15 15 16 17 17 18 18 18 18 18 18 18 18 17 17 17 17 17 16 16 15 15 14 13 13 13 13 12
17 18 20 20 21 19 17 16 15 14 13 13 12 12 12 12 13 14 15 15 16 17 17 18 18 18 18 18 18 18 19 19 19 18 18 18 17 16 16 15 14 14 14 13
14 17 18 20 20 19 18 16 15 14 13 12 11 11 11 11 12 13 14 14 15 16 16 17 18 18 19 19 19 20 20 20 20 20 20 19 19 18 17 17 16 16 16 15
13 14 16 17 18 18 18 17 15 14 13 12 10 10 10 10 10 11 12 13 14 15 16 17 17 18 19 19 20 19 20 20 20 21 21 21 20 19 19 18 17 17 17 16
12 13 14 15 16 17 17 17 16 15 13 12 10 9 9 9 9 9 11 11 12 13 14 15 16 17 18 18 19 20 20 20 20 20 20 21 21 20 19 19 19 18 18 18
11 12 12 13 14 15 15 15 16 15 14 12 11 9 8 8 8 8 9 10 11 11 12 13 15 15 16 17 18 19 20 20 20 20 21 21 21 20 20 20 19 19 19 19
Wind_Direction
264 269 272 275 277 278 278 278 275 273 273 275 278 279 278 278 276 274 272 271 270 270 270 270 269 270 270 272 273 274 276 277 277 277 276 277 279 279 281 282 281 282 279 277
274 275 280 282 282 282 281 280 277 275 278 280 281 281 279 278 277 275 274 273 272 271 269 269 268 268 269 270 270 272 273 274 274 275 274 272 275 277 277 279 281 279 277 274
281 288 291 289 287 287 284 281 281 282 283 282 282 279 278 278 276 276 274 273 273 272 271 270 268 267 267 267 267 268 269 270 271 273 274 273 273 274 276 277 278 279 279 279
290 296 297 296 295 295 292 290 291 290 287 284 281 277 275 273 274 274 273 273 271 270 269 268 267 265 264 263 264 265 266 267 269 270 272 273 273 273 274 276 277 278 278 281
306 309 308 306 305 304 301 297 295 294 291 286 282 275 269 267 267 270 271 270 269 267 266 266 264 263 261 261 261 262 263 265 266 267 269 269 271 272 273 275 275 277 279 280
317 321 320 318 317 315 312 306 302 300 296 287 281 271 264 261 261 264 265 267 269 267 263 262 261 260 260 260 261 261 263 264 265 266 267 268 269 271 272 272 271 274 276 276
335 333 332 328 324 323 320 317 314 310 299 283 276 267 264 263 263 266 266 267 269 266 263 262 260 258 258 259 259 261 262 264 265 265 266 268 270 270 270 271 271 272 272 273
340 340 341 337 332 331 331 329 327 320 307 288 277 276 274 273 271 269 270 273 273 270 264 261 260 258 258 259 260 262 263 263 264 265 265 267 268 268 269 269 269 270 272 270
348 344 345 343 340 340 340 341 339 334 315 300 292 287 283 283 285 279 278 279 278 273 265 262 261 260 261 263 264 265 265 265 265 265 265 265 266 267 268 267 268 267 269 270
354 351 353 351 350 353 354 353 353 354 347 329 311 306 307 302 302 295 286 283 282 276 270 267 265 263 264 266 266 265 266 266 266 266 265 265 266 266 267 268 267 267 266 265
0 359 359 359 360 2 4 7 8 6 7 5 348 337 335 332 325 316 304 297 291 280 275 272 270 270 269 268 267 267 268 268 267 266 266 263 261 263 265 266 263 264 263 259
9 5 7 8 8 9 11 15 19 20 21 21 15 11 7 5 5 357 341 335 317 296 285 278 279 277 275 268 265 266 267 271 271 269 266 263 263 265 264 263 260 257 253 249
13 10 10 15 15 17 18 21 26 28 29 28 27 26 24 18 16 20 19 13 10 358 355 335 316 313 315 299 292 289 270 279 279 265 267 264 261 262 264 260 246 242 243 236
16 14 15 16 17 19 22 24 28 33 36 37 38 34 31 32 32 35 38 39 38 38 37 34 40 48 50 40 28 18 20 12 12 13 354 318 306 269 246 258 247 243 246 248
20 20 19 19 20 22 25 28 31 34 36 40 44 44 42 44 44 46 48 48 46 50 51 49 51 51 49 46 48 49 50 47 40 33 28 20 6 354 321 303 291 281 275 273
24 23 22 23 24 24 26 30 31 33 35 41 46 48 47 48 49 50 51 51 50 51 50 49 49 48 46 46 47 46 43 40 33 23 14 3 347 331 318 307 299 293 287 281
23 23 23 25 25 24 28 29 30 32 36 41 45 47 47 47 46 48 48 47 47 45 45 44 43 41 39 38 38 36 33 28 21 11 1 349 337 326 318 309 302 298 294 290
24 23 22 24 24 26 24 26 28 30 35 39 40 43 43 43 44 47 47 45 43 41 39 38 37 35 34 33 32 30 28 23 15 7 360 351 342 333 325 317 309 303 299 295
23 22 21 22 24 26 24 23 24 26 30 34 35 37 39 41 42 44 44 41 40 37 35 34 33 31 30 29 27 26 23 21 17 12 6 359 353 346 339 331 323 316 309 304
22 21 21 22 22 23 23 22 21 22 27 29 31 33 36 39 39 41 40 38 36 34 33 33 31 30 29 29 28 27 25 22 19 16 12 7 2 356 351 345 340 334 327 321
20 20 20 21 22 23 22 21 19 21 24 27 29 31 35 37 38 39 37 36 34 34 34 32 31 31 31 31 31 30 30 27 24 21 18 16 12 8 3 358 353 349 345 339
17 19 19 19 19 20 19 21 21 20 20 23 27 30 33 36 38 38 37 36 36 35 34 34 34 34 34 35 36 35 33 31 29 27 25 22 20 17 14 11 8 3 359 354
13 16 17 18 19 19 19 20 21 21 20 20 23 28 31 34 35 37 37 37 37 36 37 37 37 37 38 38 37 36 34 33 31 29 27 25 22 21 19 18 16 13 10 6
6 9 13 16 18 19 20 22 22 22 23 23 24 26 28 31 33 35 36 37 38 38 39 39 38 39 39 38 37 35 34 32 30 28 26 25 24 24 23 22 20 18 17 16
356 360 3 9 14 17 19 21 22 22 22 22 24 26 27 29 30 32 34 35 37 38 39 38 38 38 38 37 35 34 33 31 29 28 26 26 26 26 26 26 25 24 24 24
342 348 353 358 4 11 15 19 20 22 23 22 21 22 24 26 28 29 30 33 34 35 37 36 36 36 35 35 33 32 31 30 29 29 28 28 27 27 27 27 28 28 29 29
Height
5883 5884 5883 5882 5881 5881 5880 5879 5878 5876 5873 5872 5871 5870 5867 5864 5865 5866 5865 5865 5865 5866 5867 5867 5869 5869 5869 5869 5869 5869 5869 5869 5870 5870 5869 5868 5869 5868 5869 5869 5868 5868 5868 5868
5880 5879 5879 5878 5877 5876 5874 5872 5871 5869 5866 5865 5864 5862 5859 5856 5855 5855 5855 5854 5855 5856 5856 5857 5859 5860 5860 5861 5861 5861 5861 5861 5861 5862 5862 5861 5861 5861 5861 5862 5862 5862 5861 5861
5876 5876 5875 5873 5871 5870 5868 5865 5862 5861 5859 5857 5855 5854 5850 5846 5844 5844 5844 5844 5845 5846 5846 5847 5848 5849 5850 5851 5852 5852 5852 5852 5853 5853 5853 5853 5853 5853 5853 5854 5854 5854 5854 5854
5874 5873 5871 5868 5866 5863 5861 5857 5855 5852 5850 5848 5847 5844 5841 5836 5834 5834 5834 5834 5834 5834 5835 5836 5838 5839 5840 5841 5842 5843 5843 5843 5844 5844 5844 5844 5844 5845 5846 5846 5846 5846 5846 5846
5870 5869 5866 5863 5860 5857 5853 5850 5846 5843 5839 5838 5837 5835 5832 5829 5826 5825 5825 5824 5823 5824 5825 5826 5828 5829 5830 5831 5832 5833 5833 5834 5835 5835 5835 5836 5836 5836 5837 5838 5838 5838 5838 5839
5868 5865 5862 5858 5854 5850 5846 5841 5837 5833 5830 5828 5828 5827 5822 5820 5818 5817 5815 5814 5813 5814 5815 5817 5818 5820 5821 5821 5822 5823 5824 5825 5825 5826 5826 5827 5828 5829 5829 5829 5829 5830 5830 5830
5864 5862 5858 5854 5850 5845 5839 5834 5829 5825 5823 5822 5820 5817 5814 5811 5810 5809 5807 5806 5806 5806 5807 5809 5810 5811 5811 5812 5813 5813 5814 5815 5816 5816 5817 5818 5819 5820 5821 5821 5821 5821 5822 5822
5862 5858 5855 5850 5845 5840 5833 5827 5823 5819 5816 5815 5812 5810 5808 5805 5803 5801 5800 5799 5798 5798 5800 5801 5802 5802 5803 5804 5804 5805 5805 5806 5806 5807 5808 5809 5810 5811 5812 5812 5813 5814 5814 5814
5861 5857 5852 5847 5841 5836 5830 5823 5818 5815 5812 5810 5808 5806 5803 5801 5799 5796 5795 5794 5793 5793 5793 5794 5794 5795 5796 5796 5797 5797 5797 5798 5799 5799 5800 5801 5802 5803 5803 5804 5804 5805 5806 5806
5860 5856 5851 5845 5840 5833 5827 5821 5816 5812 5810 5808 5806 5803 5800 5797 5795 5793 5791 5790 5788 5788 5788 5788 5789 5789 5790 5790 5790 5791 5791 5791 5792 5793 5793 5794 5795 5795 5796 5796 5797 5798 5798 5799
5859 5855 5850 5844 5838 5832 5827 5821 5816 5812 5809 5807 5805 5805 5799 5796 5794 5791 5789 5788 5786 5785 5785 5785 5785 5785 5785 5785 5786 5786 5786 5786 5787 5787 5788 5788 5789 5790 5790 5790 5791 5792 5792 5792
5858 5854 5849 5844 5838 5833 5827 5822 5817 5814 5811 5808 5806 5807 5800 5797 5794 5791 5789 5787 5786 5784 5783 5782 5782 5782 5782 5782 5783 5783 5783 5783 5783 5783 5784 5784 5785 5785 5785 5786 5787 5787 5788 5789
5859 5855 5850 5844 5841 5835 5829 5824 5820 5816 5813 5810 5808 5808 5802 5799 5796 5793 5791 5789 5787 5785 5784 5783 5782 5781 5781 5781 5781 5781 5781 5781 5781 5781 5781 5782 5782 5782 5782 5782 5784 5785 5785 5786
5859 5855 5850 5846 5841 5836 5831 5827 5823 5820 5816 5813 5811 5809 5806 5803 5800 5797 5794 5793 5790 5788 5787 5785 5784 5783 5782 5782 5782 5781 5781 5781 5781 5781 5781 5781 5781 5781 5781 5782 5782 5783 5783 5784
5861 5856 5851 5847 5842 5838 5834 5830 5827 5823 5820 5817 5815 5812 5810 5807 5804 5801 5799 5797 5794 5792 5790 5789 5787 5786 5786 5785 5784 5783 5782 5782 5782 5782 5781 5781 5781 5781 5781 5781 5781 5781 5781 5782
5862 5858 5853 5849 5845 5841 5837 5834 5830 5827 5824 5821 5818 5816 5814 5811 5809 5806 5803 5801 5799 5797 5795 5793 5791 5790 5789 5788 5787 5786 5785 5784 5784 5783 5782 5782 5781 5781 5780 5780 5780 5779 5779 5779
5864 5860 5855 5851 5847 5844 5840 5837 5834 5830 5827 5825 5823 5821 5818 5815 5813 5810 5808 5805 5803 5801 5799 5797 5795 5794 5792 5790 5789 5788 5787 5786 5785 5784 5783 5782 5781 5780 5779 5778 5777 5776 5776 5775
5865 5861 5857 5853 5850 5846 5845 5839 5837 5834 5831 5828 5826 5824 5822 5819 5817 5814 5812 5809 5807 5805 5803 5801 5798 5797 5795 5793 5791 5790 5788 5787 5785 5784 5782 5781 5780 5778 5777 5776 5775 5773 5772 5772
5867 5863 5859 5855 5851 5848 5846 5842 5839 5837 5834 5832 5829 5827 5825 5823 5821 5818 5816 5813 5811 5809 5806 5804 5802 5800 5797 5796 5794 5792 5790 5788 5786 5784 5782 5780 5779 5777 5775 5774 5772 5770 5769 5768
5869 5865 5862 5857 5853 5850 5849 5845 5842 5841 5837 5835 5832 5830 5828 5826 5824 5822 5819 5817 5814 5812 5809 5807 5805 5803 5800 5798 5796 5793 5791 5789 5787 5785 5782 5780 5778 5776 5773 5771 5770 5768 5766 5764
5871 5867 5864 5859 5856 5853 5850 5846 5844 5843 5841 5837 5835 5833 5831 5829 5827 5825 5822 5820 5818 5815 5813 5810 5808 5805 5803 5800 5798 5796 5793 5791 5788 5786 5783 5781 5778 5775 5773 5770 5768 5766 5764 5761
5872 5869 5865 5862 5858 5857 5852 5849 5847 5845 5841 5839 5837 5835 5833 5832 5830 5828 5826 5824 5821 5819 5816 5814 5811 5808 5806 5803 5801 5798 5796 5793 5790 5787 5785 5782 5779 5776 5773 5770 5768 5765 5763 5760
5872 5870 5867 5864 5862 5858 5854 5851 5848 5845 5843 5841 5839 5838 5836 5834 5833 5831 5829 5827 5824 5822 5820 5817 5815 5812 5809 5806 5804 5801 5799 5796 5793 5790 5787 5784 5781 5778 5774 5772 5769 5766 5763 5760
5873 5871 5868 5865 5862 5859 5856 5853 5850 5847 5845 5843 5841 5839 5838 5836 5835 5833 5831 5829 5827 5825 5823 5821 5818 5815 5813 5810 5807 5805 5802 5799 5796 5793 5790 5786 5783 5780 5776 5773 5770 5767 5764 5761
5873 5871 5869 5867 5864 5861 5858 5855 5852 5849 5846 5844 5842 5841 5840 5838 5837 5835 5834 5832 5830 5828 5826 5824 5821 5819 5816 5814 5811 5808 5805 5802 5799 5796 5793 5789 5786 5782 5779 5776 5772 5769 5766 5762
5873 5871 5869 5868 5865 5863 5860 5857 5854 5851 5848 5846 5844 5842 5841 5840 5838 5837 5836 5834 5832 5830 5829 5827 5824 5822 5819 5817 5814 5811 5808 5806 5802 5799 5796 5792 5789 5785 5782 5779 5775 5772 5768 5765